Regional Weather Roundup
Issued by NWS Charleston, SC

Current Version | Previous Version | Text Only | Print | Product List | Glossary Off
Versions: 1 2 3 4 5 6 7 8 9 10 11 12 13 14 15 16 17 18 19 20 21 22 23 24 25 26 27 28 29 30 31 32 33 34 35 36 37 38 39 40 41 42 43 44 45 46 47 48 49 50

000
ASUS42 KCHS 171112
RWRCHS

Regional Weather Roundup
National Weather Service Charleston SC
600 AM EST SUN DEC 17 2017

NOTE: "fair" indicates few or no clouds below 12,000 feet with no
significant weather and/or obstructions to visibility.

Not all stations are quality controlled. Use data with caution,
especially dewpoint observations.

SCZ027-030-031-034>040-042>050-171200-
...Southeast South Carolina...

CITY           SKY/WX    TMP DP  RH WIND       PRES   REMARKS
N Charleston   PTCLDY    35  34  96 CALM      30.30R
Waterfront Prk   N/A     42  41  96 CALM      30.14R
Mount Pleasant FAIR      32  32 100 CALM      30.30R
Johns Island   FAIR      34  32  93 CALM      30.30R
Pinopolis        N/A     37  37 100 CALM      30.22R
Moncks Corner  FAIR      30  28  93 CALM      30.29S FOG
Summerville    FAIR      30  30 100 CALM      30.30R
Beaufort MCAS  PTCLDY    35  34  96 CALM      30.30R FOG
Beaufort Arpt    N/A     37  36  93 CALM      30.30R FOG
Hilton Head Is NOT AVBL
Walterboro     CLOUDY    30  28  93 CALM      30.31R
Allendale      FAIR      30  30 100 CALM      30.28S

...Southern Midlands and Pee Dee...

CITY           SKY/WX    TMP DP  RH WIND       PRES   REMARKS
Georgetown     FAIR      32  32 100 CALM      30.31R
Kingstree      FAIR      28  28 100 CALM      30.30R
Orangeburg     CLOUDY    29  27  92 CALM      30.28S
Barnwell         N/A     30  28  93 CALM      30.27F
Aiken          FAIR      28  27  93 CALM      30.29R
Manning        FAIR      30  28  93 MISG      30.29S
Columbia       CLOUDY    28  26  92 SW3       30.27S
Sumter         CLOUDY    28  26  90 CALM      30.25F
Florence       CLOUDY    28  26  92 CALM      30.29F
Myrtle Beach   NOT AVBL
N Myrtle Beach CLOUDY    30  30 100 CALM      30.30R FOG

$$

GAZ063-065-086>088-099>101-113>116-118-119-134>141-150-171200-
...Southeast Georgia...

CITY           SKY/WX    TMP DP  RH WIND       PRES   REMARKS
Savannah Arpt  CLOUDY    35  34  96 CALM      30.30R
Hunter AAF     PTCLDY    37  34  90 CALM        N/A
Fort Stewart   CLOUDY    34  32  92 CALM        N/A
Statesboro     CLOUDY    33  33 100 CALM      30.28S
Sylvania       CLOUDY    33  33 100 CALM      30.29R
Claxton        FAIR      33  32  98 CALM      30.28S

...CSRA, Central and far Southeast Georgia...

CITY           SKY/WX    TMP DP  RH WIND       PRES   REMARKS
Thomson        CLOUDY    28  26  95 CALM      30.30F FOG
Augusta-Bush   MOCLDY    28  26  92 CALM      30.28S
Augusta-Daniel CLOUDY    35  31  85 CALM      30.27S
Swainsboro     FAIR      34  34 100 CALM      30.27S
Vidalia        CLOUDY    37  36  93 CALM      30.27R
Eastman        FAIR      34  29  82 CALM      30.30R
Hazlehurst     FAIR      43  30  61 CALM      30.25S
Alma           PTCLDY    38  36  92 CALM      30.26S
Waycross       PTCLDY    41  39  90 CALM      30.26R
Jesup          NOT AVBL
Baxley         FAIR      34  34 100 CALM      30.25F
Brunswick      CLOUDY    43  41  93 E3        30.27F
Saint Simons   CLOUDY    47  45  93 NE6       30.25F

$$

SCZ027-028-034-036>038-045-046-048>050-GAZ119-141-171200-
...Lake and Supplemental Coastal Observations...

STATION/POSITION TIME  TEMP    WIND        PRES    WAVE   SWELL
                       AIR SEA DIR/SP/G            HT/PER HT/PER/DIR
                 (UTC) (F)     (DEG/KT/KT) (MB)    (FT/S) (FT/S/D)
Winyah Bay       NOT AVBL
Lake Murray      1020   39        CALM     1023.7F
ACE Basin NERRS  NOT AVBL
Fort Pulaski     1036   45 53  330/  2/  2 1025.7R
Sapelo Island    1000   41      30/  1     1025.0

$$

ANZ835-935-AMZ111-154-330-350-352-354-370-450-454-472-171200-
...C-MAN and Buoy Observations...

STATION/POSITION TIME  TEMP    WIND        PRES    WAVE   SWELL
                       AIR SEA DIR/SP/G            HT/PER HT/PER/DIR
                 (UTC) (F)     (DEG/KT/KT) (MB)    (FT/S) (FT/S/D)
Buoy 41004       1050   56 72  360/  4/  8 1025.1R   2/ 8   2/ 70/ 8
Buoy 41008       1050   56 58   80/  4/  4 1025.3R   1/10   2/130/10
Folly Beach CMAN 1000   43     330/  3/  3 1025.6F
Capers Nearshore 1008   44 55  360/  6/  8 1024.9F


STATION/POSITION TIME  TEMP    WIND        PRES    WAVE   SWELL
                       AIR SEA DIR/SP/G            HT/PER HT/PER/DIR
                 (UTC) (F)     (DEG/KT/KT) (MB)    (FT/S) (FT/S/D)
5E St. Marys GA  1030      62                N/A     1/11
Frying Pan Buoy  1050   55 68  360/  2/  4 1025.5R   2/10   2/100/10
Buoy 41025       1050   52 72  300/ 10/ 16 1025.8R   3/ 8   2/ 70/ 8
Cape Lookout NC  1000          340/  5/  6 1026.0S
Buoy 41002       1050   63 74   20/  4/  6 1025.6R   3/ 8   3/ 50/ 8
Buoy 41010       NOT AVBL
St Augustine FL  1100   63 63   50/  7/  7 1024.0F


$$




USA.gov is the U.S. government's official web portal to all federal, state and local government web resources and services.